CZ-6A DEB, 61117

Orbit data source: Space-Track

CZ-6A DEB, 61117 is space debris in LEO originally from a launch on Tue, 06 Aug 2024 UTC launched from the Taiyaun Space Center, China (TSC). Debris objects in space refer to the collection of defunct objects orbiting the Earth. Examples of debris include non-operational satellites, rocket bodies, and fragments generated from explosions, collisions, or faulty payload assembly.

Loading next visibility...
Identifier
61117, 2024-140PK
Orbit
LEO
Country
Flag of CNCN / PRC
Related business
Manufacturer
SAST
Mission
Spacecraft
Bus & Motor
Unknown
Mass
Unknown
Launch date (UTC)
2024-08-06 (2 years ago)
Launch vehicle
Unknown
Launch site
Taiyaun Space Center, China (TSC)
Object type
Payload
Rocket body
Debris
Shape & HBR
Unknown shape, 0.1 m
Radar Cross Section
Medium (>0.1 m² and <1 m²)

Expand to show TLE details & history
Last TLE update: 14 hours ago

TLE from 14 hours ago
0 CZ-6A DEB
1 61117U 24140PK  26171.25510264  .00016421  00000-0  17947-2 0  9993
2 61117  89.0605 273.1096 0079508 179.3333 180.8015 14.85456832 97568
Epoch: 2026-06-20T06:07Z
TLE epoch observation values (Epoch: 2026-06-20T06:07:20.868Z)
Latitude
0.00001°
Longitude
-87.1997°
Altitude
670.885 km
Speed
7.491 km/s
True Right ascension
18h 12m 26s
True Declination
0° 00' 00"
Sunlit
Object was in full shadow at epoch
Visualization orbit readout
Latitude
Unknown
Longitude
Unknown
Altitude
Unknown
Speed
Unknown
Apparent Right ascension
Unknown
Apparent Declination
Unknown
Sunlit
N/A
Visualization observer readout
Local Sidereal Time
07:18:13
Azimuth
Unknown
Elevation
Unknown
Doppler factor
Unknown
Orbital elements
Apogee altitude
664.563 km
Perigee altitude
553.456 km
Semi-major axis
6,987.147 km
Eccentricity
0.00795
Inclination
89.0605°
RAAN
273.1096°
Arg. of periapsis
179.3333°
True anomaly
180.78888°
Mean anomaly
180.8015°
Eccentric anomaly
180.79518°
Mean motion
3.71615 °/min
Orbital period
96.87 mins
BSTAR
0.0017947
Loading maneuver chart data...
Computing Atmospheric mass density...
Loading historical data...
Loading historical data...
Loading historical data...
Loading historical data...
Loading historical data...
Loading historical data...
Loading historical data...

Documentation

Showing up to 5 results
|